Regional Weather Roundup
Issued by NWS Charleston, SC

Current Version | Previous Version | Graphics & Text | Print | Product List | Glossary On
Versions: 1 2 3 4 5 6 7 8 9 10 11 12 13 14 15 16 17 18 19 20 21 22 23 24 25 26 27 28 29 30 31 32 33 34 35 36 37 38 39 40 41 42 43 44 45 46 47 48 49 50
000
ASUS42 KCHS 201827
RWRCHS

REGIONAL WEATHER ROUNDUP
NATIONAL WEATHER SERVICE CHARLESTON SC
100 PM EST MON FEB 20 2017

NOTE: "FAIR" INDICATES FEW OR NO CLOUDS BELOW 12,000 FEET WITH NO
SIGNIFICANT WEATHER AND/OR OBSTRUCTIONS TO VISIBILITY.

NOT ALL STATIONS ARE QUALITY CONTROLLED. USE DATA WITH CAUTION...
ESPECIALLY DEWPOINT OBSERVATIONS.

SCZ027-030-031-034>040-042>050-201900-
...SOUTHEAST SOUTH CAROLINA...

CITY           SKY/WX    TMP DP  RH WIND       PRES   REMARKS
N CHARLESTON   MOSUNNY   75  46  35 VRB3      30.16F
6HR MIN TEMP:  49; 6HR MAX TEMP:  75;

WATERFRONT PRK   N/A     64  55  72 SE7       30.16F
MOUNT PLEASANT FAIR      73  52  46 SE6       30.15F
JOHNS ISLAND   FAIR      72  48  43 E9        30.17S
PINOPOLIS        N/A     61  52  72 VRB3      30.09F
MONCKS CORNER  FAIR      72  45  37 CALM      30.16F
SUMMERVILLE    FAIR      73  45  35 NW6       30.16F
BEAUFORT MCAS  MOSUNNY   75  51  43 E6        30.16F
6HR MIN TEMP:  49; 6HR MAX TEMP:  75;

BEAUFORT ARPT  FAIR      72  48  43 NE7       30.16F
HILTON HEAD IS MOSUNNY   72  50  46 E5        30.18F
WALTERBORO     CLEAR     73  45  35 NE6       30.16F
ALLENDALE      FAIR      73  45  35 CALM      30.15F

...SOUTHERN MIDLANDS AND PEE DEE...

CITY           SKY/WX    TMP DP  RH WIND       PRES   REMARKS
GEORGETOWN     FAIR      70  43  37 NE7       30.18F
KINGSTREE      FAIR      70  43  37 N5        30.15F
ORANGEBURG     SUNNY     71  42  35 VRB3      30.17F
6HR MIN TEMP:  45; 6HR MAX TEMP:  72;

BARNWELL       FAIR      73  45  35 NE7       30.16F
AIKEN          FAIR      68  41  37 CALM      30.20F
MANNING        FAIR      70  45  40 MISG      30.16F
COLUMBIA       MOSUNNY   74  41  30 VRB5      30.16F
6HR MIN TEMP:  41; 6HR MAX TEMP:  74;

SUMTER         SUNNY     71  43  35 E5G17     30.15F
6HR MIN TEMP:  46; 6HR MAX TEMP:  71;

FLORENCE       SUNNY     70  45  40 CALM      30.18F
6HR MIN TEMP:  43; 6HR MAX TEMP:  71;

MYRTLE BEACH   SUNNY     68  45  42 E10       30.18F
N MYRTLE BEACH SUNNY     66  46  48 SE8       30.17F
6HR MIN TEMP:  50; 6HR MAX TEMP:  69;


$$

GAZ063-065-086>088-099>101-113>116-118-119-134>141-150-201900-
...SOUTHEAST GEORGIA...

CITY           SKY/WX    TMP DP  RH WIND       PRES   REMARKS
SAVANNAH ARPT  PTSUNNY   76  45  33 E3        30.17F
6HR MIN TEMP:  49; 6HR MAX TEMP:  77;

HUNTER AAF     MOSUNNY   75  53  45 SE8       30.15F
6HR MIN TEMP:  50; 6HR MAX TEMP:  75;

FORT STEWART   MOSUNNY   75  48  38 CALM      30.14F
6HR MIN TEMP:  46; 6HR MAX TEMP:  75;

STATESBORO     MOSUNNY   75  51  43 E3        30.15F
SYLVANIA       MOCLDY   N/A N/A N/A SE5       30.17F
CLAXTON        FAIR      76  51  42 SE7       30.15F

...CSRA...CENTRAL AND FAR SOUTHEAST GEORGIA...

CITY           SKY/WX    TMP DP  RH WIND       PRES   REMARKS
THOMSON        MOSUNNY   72  48  42 SE5       30.21F
AUGUSTA-BUSH   MOSUNNY   74  43  32 VRB3      30.17F
6HR MIN TEMP:  42; 6HR MAX TEMP:  74;

AUGUSTA-DANIEL MOSUNNY   71  40  32 VRB3      30.18F
SWAINSBORO     FAIR      73  46  38 S5        30.16F
VIDALIA        SUNNY     77  54  44 E10       30.16F
EASTMAN        FAIR      77  32  19 E7        30.17F
HAZLEHURST     FAIR      75  54  46 E6        30.15F
ALMA           MOSUNNY   75  53  46 VRB6      30.15F
6HR MIN TEMP:  47; 6HR MAX TEMP:  75;

WAYCROSS       MOSUNNY   79  56  45 E7G16     30.14F
JESUP          FAIR      77  46  33 E5        30.15F
BAXLEY         FAIR      77  55  47 SE8       30.15F
BRUNSWICK      SUNNY     75  52  43 E5        30.17F
SAINT SIMONS   SUNNY     72  50  45 E9        30.17F
6HR MIN TEMP:  52; 6HR MAX TEMP:  72;


$$

SCZ027-028-034-036>038-045-046-048>050-GAZ119-141-201900-
...LAKE AND SUPPLEMENTAL COASTAL OBSERVATIONS...

STATION/POSITION TIME  TEMP    WIND        PRES    WAVE   SWELL
                       AIR SEA DIR/SP/G            HT/PER HT/PER/DIR
                 (UTC) (F)     (DEG/KT/KT) (MB)    (FT/S) (FT/S/D)
WINYAH BAY       1745   62      70/  6     1022.0F
LAKE MURRAY      1820   69      CALM  /  2 1020.7
ACE BASIN NERRS  1745   74     340/  2     1021.0F
FORT PULASKI     1800   61 60  100/  8/ 10 1022.3
SAPELO ISLAND    1800   73      80/  6     1022.0

$$

ANZ835-935-AMZ111-154-330-350-352-354-370-450-454-472-201900-
...C-MAN AND BUOY OBSERVATIONS...

STATION/POSITION TIME  TEMP    WIND        PRES    WAVE   SWELL
                       AIR SEA DIR/SP/G            HT/PER HT/PER/DIR
                 (UTC) (F)     (DEG/KT/KT) (MB)    (FT/S) (FT/S/D)
BUOY 41004       1750   65 69   30/  8/  8 1021.1F   2/ 3
BUOY 41008       1750   63 63  360/  4/  4 1021.8F
FOLLY BEACH CMAN 1800   62      70/  9/ 10 1022.3F
CAPERS NEARSHORE 1808   60 59   70/ 10/ 12 1021.2F
FRIPP NEARSHORE  1808   60 60   70/  8/ 10 1021.5F


STATION/POSITION TIME  TEMP    WIND        PRES    WAVE   SWELL
                       AIR SEA DIR/SP/G            HT/PER HT/PER/DIR
                 (UTC) (F)     (DEG/KT/KT) (MB)    (FT/S) (FT/S/D)
5E ST. MARYS GA  1800      65                N/A     1/ 4
FRYING PAN BUOY  1810   63 65   30/ 10/ 12 1020.9
BUOY 41025       1750   58 63   10/ 17/ 19 1021.2F   3/ 5
CAPE LOOKOUT NC  1800   58      40/ 14/ 15 1021.5F
BUOY 41002       1750   70 71   30/ 17/ 19 1018.3F   5/ 7
BUOY 41010       NOT AVBL
ST AUGUSTINE FL  1800   66 67   20/  6/  7 1022.0F


$$




USA.gov is the U.S. government's official web portal to all federal, state and local government web resources and services.